TimeICT,TemperatureF,Dew PointF,Humidity,Sea Level PressureIn,VisibilityMPH,Wind Direction,Wind SpeedMPH,Gust SpeedMPH,PrecipitationIn,Events,Conditions,WindDirDegrees,DateUTC
12:00 AM,73.4,62.6,69,29.83,1.9,NW,5.8,-,N/A,,Mist,320,2013-01-04 17:00:00
12:30 AM,73.4,62.6,69,29.83,1.9,NNW,4.6,-,N/A,,Mist,330,2013-01-04 17:30:00
1:00 AM,73.4,60.8,65,29.80,1.9,North,6.9,-,N/A,,Mist,350,2013-01-04 18:00:00
1:30 AM,71.6,60.8,69,29.80,1.9,NNW,4.6,-,N/A,,Mist,340,2013-01-04 18:30:00
2:00 AM,71.6,60.8,69,29.80,1.9,NNW,5.8,-,N/A,,Mist,340,2013-01-04 19:00:00
2:30 AM,71.6,60.8,69,29.80,1.9,NNW,5.8,-,N/A,,Mist,340,2013-01-04 19:30:00
3:00 AM,71.6,60.8,69,29.80,1.9,NNW,4.6,-,N/A,,Mist,340,2013-01-04 20:00:00
3:30 AM,71.6,60.8,69,29.77,1.9,NNW,5.8,-,N/A,,Mist,340,2013-01-04 20:30:00
4:00 AM,69.8,60.8,73,29.77,1.9,NNW,4.6,-,N/A,,Mist,330,2013-01-04 21:00:00
4:30 AM,69.8,60.8,73,29.77,1.9,NNW,5.8,-,N/A,,Mist,340,2013-01-04 21:30:00
5:00 AM,69.8,60.8,73,29.80,1.9,NNW,4.6,-,N/A,,Mist,330,2013-01-04 22:00:00
5:30 AM,69.8,60.8,73,29.80,1.9,NNW,4.6,-,N/A,,Mist,340,2013-01-04 22:30:00
6:00 AM,69.8,60.8,73,29.80,1.9,NNW,5.8,-,N/A,,Mist,340,2013-01-04 23:00:00
6:30 AM,69.8,60.8,73,29.83,1.9,NNW,6.9,-,N/A,,Mist,330,2013-01-04 23:30:00
7:00 AM,69.8,60.8,73,29.83,1.9,NNW,6.9,-,N/A,,Mist,330,2013-01-05 00:00:00
8:00 AM,75.2,60.8,61,29.86,2.5,NNW,9.2,-,N/A,,Haze,340,2013-01-05 01:00:00
8:30 AM,80.6,62.6,54,29.86,3.1,North,6.9,-,N/A,,Haze,350,2013-01-05 01:30:00
9:00 AM,82.4,60.8,48,29.86,3.1,NNW,6.9,-,N/A,,Haze,340,2013-01-05 02:00:00
9:30 AM,84.2,60.8,45,29.86,3.1,NNE,6.9,-,N/A,,Haze,30,2013-01-05 02:30:00
10:00 AM,86.0,59.0,40,29.86,3.7,ENE,8.1,-,N/A,,Unknown,60,2013-01-05 03:00:00
10:30 AM,87.8,59.0,38,29.86,3.7,NE,6.9,-,N/A,,Unknown,40,2013-01-05 03:30:00
11:00 AM,89.6,59.0,36,29.86,3.7,NE,6.9,-,N/A,,Unknown,50,2013-01-05 04:00:00
11:30 AM,87.8,57.2,35,29.86,4.3,East,6.9,-,N/A,,Unknown,80,2013-01-05 04:30:00
12:00 PM,89.6,57.2,33,29.83,4.3,East,9.2,-,N/A,,Unknown,90,2013-01-05 05:00:00
12:30 PM,93.2,53.6,26,29.83,4.3,SSE,6.9,-,N/A,,Mostly Cloudy,160,2013-01-05 05:30:00
1:00 PM,93.2,53.6,26,29.80,4.3,South,6.9,-,N/A,,Mostly Cloudy,180,2013-01-05 06:00:00
1:30 PM,89.6,62.6,40,29.77,4.3,South,9.2,-,N/A,,Mostly Cloudy,180,2013-01-05 06:30:00
2:00 PM,87.8,64.4,46,29.77,4.3,South,11.5,-,N/A,,Mostly Cloudy,190,2013-01-05 07:00:00
2:30 PM,87.8,64.4,46,29.77,4.3,SSW,9.2,-,N/A,,Mostly Cloudy,210,2013-01-05 07:30:00
3:00 PM,87.8,64.4,46,29.77,4.3,SW,6.9,-,N/A,,Mostly Cloudy,230,2013-01-05 08:00:00
3:30 PM,89.6,62.6,40,29.74,4.3,WSW,8.1,-,N/A,,Mostly Cloudy,240,2013-01-05 08:30:00
4:00 PM,87.8,64.4,46,29.74,4.3,WSW,8.1,-,N/A,,Mostly Cloudy,250,2013-01-05 09:00:00
4:30 PM,87.8,64.4,46,29.74,3.7,West,6.9,-,N/A,,Mostly Cloudy,280,2013-01-05 09:30:00
5:00 PM,87.8,66.2,49,29.77,3.1,West,4.6,-,N/A,,Haze,280,2013-01-05 10:00:00
5:30 PM,86.0,64.4,48,29.77,3.1,WNW,5.8,-,N/A,,Haze,290,2013-01-05 10:30:00
6:00 PM,84.2,66.2,55,29.77,2.5,WNW,4.6,-,N/A,,Haze,290,2013-01-05 11:00:00
6:30 PM,82.4,68.0,62,29.77,2.5,West,3.5,-,N/A,,Haze,280,2013-01-05 11:30:00
7:00 PM,80.6,66.2,61,29.80,2.5,Calm,Calm,-,N/A,,Haze,0,2013-01-05 12:00:00
7:30 PM,80.6,66.2,61,29.80,2.5,Calm,Calm,-,N/A,,Haze,0,2013-01-05 12:30:00
8:00 PM,78.8,66.2,65,29.80,2.5,Calm,Calm,-,N/A,,Mist,0,2013-01-05 13:00:00
8:30 PM,78.8,68.0,69,29.80,2.5,Calm,Calm,-,N/A,,Mist,0,2013-01-05 13:30:00
9:00 PM,78.8,68.0,69,29.80,2.5,Calm,Calm,-,N/A,,Mist,0,2013-01-05 14:00:00
9:30 PM,75.2,68.0,78,29.80,1.9,Calm,Calm,-,N/A,,Mist,0,2013-01-05 14:30:00
10:00 PM,75.2,68.0,78,29.80,1.9,Calm,Calm,-,N/A,,Mist,0,2013-01-05 15:00:00
10:30 PM,73.4,68.0,83,29.83,1.9,North,4.6,-,N/A,,Mist,10,2013-01-05 15:30:00
11:00 PM,73.4,68.0,83,29.80,1.9,NNW,4.6,-,N/A,,Mist,330,2013-01-05 16:00:00